Flag for Germany Weather past 2 weeks in Greven, North Rhine-Westphalia, Germany

Now
61 °F

Clear.


Feels Like: 61 °F
Forecast: 55 / 81 °F
Wind: 8 mph from Southwest

Location: Muenster / Osnabrueck

Current Time: Jul 6, 2015 at 5:20:47 AM

Latest Report: Jul 6, 2015 at 4:50 AM


Visibility: 10 mi

Pressure: 30.09 "Hg

Humidity: 88%

Dew point: 57 °F

Location of GrevenLocation

Historic Weather in Greven — Graph

°F

Greven temperature yesterday

Maximum temperature yesterday: 82 °F (at 3:50 PM)
Minimum temperature yesterday: 64 °F (at 8:20 PM)
Average temperature yesterday: 72 °F

Past Weeks' High & Low Weather Summary

 TemperatureHumidityPressure
High99 °F (Jul 2, 3:20 PM)100% (Jun 21, 4:50 PM)30.27 "Hg (Jun 21, 4:50 PM)
Low46 °F (Jun 23, 3:50 AM)25% (Jul 1, 2:20 PM)29.65 "Hg (Jun 22, 8:50 PM)
Average68 °F70%30.06 "Hg
* Reported Jun 21 4:20 AM — Jul 6 4:20 AM, Greven, Weather by CustomWeather, © 2015

Note: Actual official high and low records may vary slightly from our data, if they occured in-between our weather recording intervals... More about our weather records

Advertising

Greven weather history for previous 24 hours

 ConditionsComfort  
Time TempWeatherWind HumidityBarometerVisibility
4:20 AM
Mon, Jul 6
57 °FClear.5 mph94%30.09 "Hg10 mi
3:50 AM61 °FClear.7 mph88%30.09 "Hg10 mi
3:20 AM61 °FClear.6 mph88%30.09 "Hg10 mi
2:50 AM61 °FClear.6 mph88%30.07 "Hg10 mi
2:20 AM63 °FClear.7 mph88%30.07 "Hg10 mi
1:50 AM63 °FClear.8 mph88%30.04 "Hg10 mi
1:20 AM63 °FClear.7 mph88%30.04 "Hg10 mi
12:50 AM66 °FClear.10 mph78%30.04 "Hg10 mi
12:20 AM64 °FClear.5 mph88%30.01 "Hg10 mi
11:50 PM
Sun, Jul 5
66 °FClear.7 mph83%30.04 "Hg10 mi
11:20 PM66 °FClear.7 mph88%30.04 "Hg10 mi
10:50 PM66 °FBroken clouds.7 mph88%30.01 "HgN/A
10:20 PM66 °FBroken clouds.6 mph88%29.98 "HgN/A
9:50 PM66 °FSunny.6 mph88%29.98 "Hg10 mi
9:20 PM66 °FBroken clouds.6 mph88%29.98 "HgN/A
8:50 PM66 °FBroken clouds.6 mph88%29.98 "HgN/A
8:20 PM64 °FBroken clouds.7 mph88%29.95 "HgN/A
7:50 PM66 °FThundershowers. Broken clouds.10 mph83%29.92 "HgN/A
7:20 PM70 °FBroken clouds.12 mph73%29.95 "HgN/A
6:50 PM73 °FBroken clouds.21 mph69%29.92 "HgN/A
6:20 PM82 °FBroken clouds.6 mph58%29.92 "HgN/A
5:50 PM81 °FScattered clouds.6 mph62%29.89 "HgN/A
5:20 PM79 °FScattered clouds.8 mph61%29.86 "HgN/A
4:50 PM79 °FSprinkles. Broken clouds.8 mph65%29.86 "HgN/A
4:20 PM81 °FBroken clouds.8 mph62%29.92 "HgN/A
3:50 PM82 °FScattered clouds.6 mph58%29.89 "HgN/A
3:20 PM81 °FScattered clouds.5 mph70%29.92 "HgN/A
2:50 PM79 °FScattered clouds.5 mph74%29.95 "HgN/A
2:20 PM75 °FPartly sunny.3 mph78%29.95 "HgN/A
1:50 PM72 °FThunderstorms. Broken clouds.6 mph94%29.95 "HgN/A
1:20 PM72 °FThunderstorms. Broken clouds.2 mph83%29.98 "HgN/A
12:50 PM70 °FThundershowers. Broken clouds.6 mph88%29.98 "HgN/A
12:20 PM70 °FThundershowers. Broken clouds.5 mph88%30.01 "HgN/A
11:50 AM70 °FThundershowers. Broken clouds.6 mph94%30.04 "HgN/A
11:20 AM70 °FThundershowers. Broken clouds.7 mph88%30.04 "HgN/A
10:50 AM72 °FThunderstorms. Broken clouds.3 mph88%30.04 "HgN/A
10:20 AM75 °FThunderstorms. Broken clouds.2 mph74%30.07 "HgN/A
9:50 AM75 °FBroken clouds.7 mph74%30.04 "HgN/A
9:20 AM72 °FBroken clouds.5 mph83%30.07 "HgN/A
8:50 AM72 °FThundershowers. Broken clouds.2 mph83%30.07 "HgN/A
8:20 AM72 °FSprinkles. Broken clouds.5 mph83%30.07 "HgN/A
7:50 AM72 °FBroken clouds.5 mph78%30.09 "HgN/A
7:20 AM70 °FSprinkles. Partly sunny.3 mph83%30.07 "HgN/A
6:50 AM70 °FSprinkles. Broken clouds.6 mph78%30.07 "HgN/A
6:20 AM70 °FSprinkles. Broken clouds.3 mph78%30.07 "HgN/A
5:50 AM68 °FPassing clouds.3 mph83%30.09 "HgN/A
5:20 AM68 °FClear.2 mph83%30.09 "Hg10 mi
Weather by CustomWeather, © 2015

See weather overviewHow to use our weather pages